Regional Weather Roundup
Issued by NWS

Home | Current Version | Previous Version | Graphics & Text | Print | Product List | Glossary On
Versions: 1 2 3 4 5 6 7 8 9 10 11 12 13 14 15 16 17 18 19 20 21 22 23 24 25 26 27 28 29 30 31 32 33 34 35 36 37 38 39 40 41 42 43 44 45 46 47 48 49 50
000
ASUS43 KMPX 241310
RWRMN
WEATHER ROUNDUP FOR MINNESOTA
NATIONAL WEATHER SERVICE TWIN CITIES/CHANHASSEN MN
800 AM CDT WED MAY 24 2017


NOTE: "FAIR" INDICATES FEW OR NO CLOUDS BELOW 12,000 FEET WITH NO
SIGNIFICANT WEATHER AND/OR OBSTRUCTIONS TO VISIBILITY. N/A MEANS
CURRENT SKY AND/OR WEATHER CONDITIONS ARE NOT AVAILABLE.

MNZ060>063-068>070-241400-
   Twin Cities Metro

CITY           SKY/WX    TMP DP  RH WIND       PRES   REMARKS
TWIN CITIES    CLOUDY    49  43  80 N12       29.79R
ST PAUL        CLOUDY    50  45  83 NE9       29.79F
CRYSTAL        CLOUDY    49  41  74 N9        29.79S
BLAINE         CLOUDY    50  46  87 N13       29.79S
LAKEVILLE      CLOUDY    46  45  93 NE8       29.78R
EDEN PRAIRIE   CLOUDY    50  43  77 N7        29.78S
SOUTH ST PAUL  MOSUNNY   50  43  77 NE8       29.78S
LAKE ELMO      FAIR      48  45  87 N5        29.79S
$$
MNZ001>005-007-008-013>017-022>024-027-028-241400-
   Northwest Minnesota

CITY           SKY/WX    TMP DP  RH WIND       PRES   REMARKS
BEMIDJI        SUNNY     46  43  88 CALM      29.85S
HALLOCK        SUNNY     50  45  81 SE5       29.83S
ROSEAU         SUNNY     50  45  81 CALM      29.85S
WARROAD        SUNNY     52  46  82 CALM      29.85F
THIEF RVR FALL SUNNY     50  44  80 CALM      29.86S
CROOKSTON      SUNNY     50  45  81 E6        29.85F
FOSSTON        SUNNY     46  45  93 CALM      29.85S
DETROIT LAKES  SUNNY     48  43  81 E3        29.84S
MOORHEAD       SUNNY     45  43  93 CALM      29.84F
PARK RAPIDS    SUNNY     50  41  71 E6        29.83S
MAHNOMEN       FAIR      48  44  85 E5        29.84F
$$
MNZ006-009>011-018-025>026-241400-
   North Central Minnesota

CITY           SKY/WX    TMP DP  RH WIND       PRES   REMARKS
BAUDETTE       SUNNY     47  45  93 CALM      29.86S
FLAG ISLAND    SUNNY     52  43  71 CALM      29.84S
INTL FALLS     SUNNY     51  42  71 E7        29.86S
WASKISH        SUNNY     46  45  93 E6        29.86S
BIG FORK       SUNNY     46  41  81 CALM      29.85F
LONGVILLE      SUNNY     50  45  81 CALM      29.83F
GRAND RAPIDS   SUNNY     49  43  80 CALM      29.86F
CRANE LAKE     SUNNY     43  43 100 CALM      29.89S
ORR            SUNNY     45  43  93 CALM      29.84S
COOK           SUNNY     48  41  76 CALM      29.86S
WALKER         FAIR      46  43  89 CALM      29.84S
$$
MNZ012-019>021-037-241400-
   Northeast Minnesota

CITY           SKY/WX    TMP DP  RH WIND       PRES   REMARKS
DULUTH         MOSUNNY   51  44  77 NE9       29.82S
ELY            SUNNY     48  39  71 NE6       29.85S
HIBBING        SUNNY     49  41  74 E7        29.84F
EVELETH        SUNNY     53  41  64 E7        29.85F
DULUTH HARBOR  CLOUDY    48  45  87 E8        29.84S
TWO HARBORS    CLOUDY    52  45  76 E7        29.82S
SILVER BAY     CLOUDY    48  45  87 NE5       29.82F
GRAND MARAIS     N/A     50  40  68 NE6       29.84S
G MARAIS ARPRT PTSUNNY   46  37  71 NE7       29.85S
$$
MNZ029>031-032-039>041-046>048-054>057-064-241400-
   West Central Minnesota

CITY           SKY/WX    TMP DP  RH WIND       PRES   REMARKS
FERGUS FALLS   MOSUNNY   52  46  82 E5        29.82F
WHEATON        CLOUDY    48  45  87 CALM      29.84F
MORRIS         CLOUDY    48  46  93 CALM      29.82S
ALEXANDRIA     CLOUDY    50  46  86 E8        29.83S
ELBOW LAKE     CLOUDY    49  46  90 CALM      29.83F
WADENA         SUNNY     48  43  81 E3        29.82F
GLENWOOD       PTSUNNY   48  46  93 NE9       29.82S
APPLETON       CLOUDY    50  46  87 N5        29.82S
BENSON         CLOUDY    48  46  93 CALM      29.84S
ORTONVILLE     CLOUDY    48  45  87 N3        29.83S
MADISON        CLOUDY    52  50  93 N5        29.83R
WILLMAR        CLOUDY    52  46  82 NE7       29.82S
$$
MNZ033>034-036-042>043-049>051-058-059-241400-
   Central Minnesota

CITY           SKY/WX    TMP DP  RH WIND       PRES   REMARKS
ST CLOUD       CLOUDY    50  45  83 NE7       29.82S
SAUK CENTRE    CLOUDY    49  46  88 NE5       29.83S
PAYNESVILLE    CLOUDY    49  49 100 N8        29.82S
AITKIN         PTSUNNY   48  46  93 N7        29.82S
PINE RIVER     SUNNY     48  45  87 CALM      29.87S
BRAINERD       MOSUNNY   50  46  86 NE5       29.83F
STAPLES        MOSUNNY   50  45  81 E3        29.82F
LONG PRAIRIE   CLOUDY    48  45  87 N7        29.83S
LITTLE FALLS   PTSUNNY   48  45  87 CALM      29.82F
LITCHFIELD     PTSUNNY   52  46  82 NE9       29.81S
BUFFALO        PTSUNNY   48  43  81 N8        29.81S
MAPLE LAKE     MOSUNNY   51  46  82 NE9G17    29.82S
HUTCHINSON     PTSUNNY   49  46  90 N8        29.81S
$$
MNZ037-044-045-052-053-241400-
   East Central Minnesota

CITY           SKY/WX    TMP DP  RH WIND       PRES   REMARKS
PRINCETON      CLOUDY    52  46  82 N9        29.81S
MORA           CLOUDY    48  43  81 NE6       29.83S
CAMBRIDGE      CLOUDY    52  43  71 N6        29.79S
RUSH CITY      PTSUNNY   48  44  85 NE9       29.81S
MOOSE LAKE     PTSUNNY   50  43  76 NE10      29.81S
HINCKLEY       CLOUDY    50  46  87 N10       29.81S
CLOQUET        MOSUNNY   48  43  81 NE10      29.82S
MCGREGOR       PTSUNNY   48  46  93 NE5       29.84S
$$
MNZ071>073-080-081-089-090-097-098-241400-
   Southwest Minnesota

CITY           SKY/WX    TMP DP  RH WIND       PRES   REMARKS
MONTEVIDEO     CLOUDY    48  48 100 NE6       29.82S
CANBY          CLOUDY    48  46  92 CALM      29.84S
MARSHALL       CLOUDY    47  45  93 N6        29.82F
REDWOOD FALLS  CLOUDY    48  44  86 N6        29.80S
OLIVIA         CLOUDY    50  45  81 NE10      29.80S
PIPESTONE      CLOUDY    48  43  81 E8        29.81R
WINDOM         SUNNY     48  46  93 N13       29.79F
WORTHINGTON    CLOUDY    47  45  93 N10       29.81S
JACKSON        CLOUDY    46  45  93 N10       29.79S
TRACY          CLOUDY    47  47 100 N6        29.82S
SLAYTON        CLOUDY    46  44  94 N9        29.81F
$$
MNZ065>067-074>077-082>085-091>093-241400-
   South Central Minnesota

CITY           SKY/WX    TMP DP  RH WIND       PRES   REMARKS
MANKATO        CLOUDY    47  44  90 NE10      29.78S
NEW ULM        PTSUNNY   48  45  87 N7        29.78F
ST JAMES       MOSUNNY   48  46  93 N9        29.79S
FAIRMONT       CLOUDY    47  44  90 N12       29.77F
GLENCOE        CLOUDY    49  47  91 N9        29.79S
FARIBAULT      CLOUDY    46  45  93 N9        29.78R
OWATONNA       CLOUDY    46  45  93 N10       29.76S
WASECA         CLOUDY    45  43  93 N10       29.78R
ALBERT LEA     CLOUDY    48  46  93 N8        29.75R
$$
MNZ078>079-086>088-094>096-241400-
   Southeast Minnesota

CITY           SKY/WX    TMP DP  RH WIND       PRES   REMARKS
ROCHESTER      CLOUDY    48  46  93 N13       29.74S
RED WING       CLOUDY    48  43  81 NE5       29.76S
STANTON        CLOUDY    48  44  86 N12       29.76S
DODGE CENTER   CLOUDY    46  45  93 N12       29.74S
WINONA         CLOUDY    52  46  82 N3        29.74R
AUSTIN         CLOUDY    48  45  87 NE8       29.73S
PRESTON        CLOUDY    47  45  91 N8        29.72S
$$
ABBREVIATIONS USED IN REMARKS
   TC - TEMPERATURES IN CELSIUS
  WCI - WIND CHILL INDEX
   HX - HEAT INDEX
  VSB - VISIBILITY
$$




USA.gov is the U.S. government's official web portal to all federal, state and local government web resources and services.